STARLINK-3110 (49420 NORAD) Tracking and Keplerian Element Data

This shows tracking and keplerian element data for the satellite.

Feedback or suggestion? Click here.




ElementValue
Catalog49420
NameSTARLINK-3110
Epoch Orbit366
Epoch Day15.91668981
Epoch Year2022
RAAN185.3614
Inclination53.2175
Eccentricity0.000149
Argument of Perigee46.8231
Mean Anonmoly351.2481
Mean Motion15.24672436
Decay Rate-0.00655408
L11 49420U 21104N 22015.91668981 -.00655408 00000+0 -28204-1 0 9991
L22 49420 53.2175 185.3614 0001490 46.8231 351.2481 15.24672436 3669

Live tracking and technical data element details for STARLINK-3110 (NORAD 49420). STARLINK-3110 can be tracked NOW for your location showing map with azimuth and elevation plus other details from your city location.

Track the satellite on the map from your city or location and see movement details for azimuth, elevation, latitude, longitude, range, height, and movement on the map or in text.







IsCatalogInMostPopularTable: catalog: 49420, numindb: 6
Update: records affected: 1



GetName: 49420 STARLINK-3110

Hit Count: updated at: Thu, 20 Jan 2022 17:37:07 GMT